[[{"header":{"parameterUnit":"m.s-1","parameterCategory":1,"la1":30.2992,"la2":30.254,"lo1":-89.0895,"lo2":-89.0443,"dy":0.0025,"dx":0.0025,"nx":19,"ny":19,"refTime":"2026-03-16T21:00:00:Z","depth":0,"parameterNumber":2,"parameterNumberName":"U-component_of_WINDS"},"data":[0,0,0,0.9207,0.9207,0.9217,0.9217,0.9227,0.9227,0,0,0,0,0,0,0,0,0,0,0,0.9203,0.9203,0.9207,0.9207,0.9217,0.9217,0.9227,0.9227,0,0,0,0,0,0,0,0,0,0,0,0.9203,0.9203,0.9203,0.9208,0.9217,0.9217,0.9227,0.9221,0,0,0,0,0,0,0,0,0,0,0.9212,0.9207,0.9203,0.9203,0.9208,0.9217,0.9217,0.922,0.9221,0.9222,0,0.9222,0,0.9225,0.9228,0.9228,0,0,0,0.9208,0.9206,0.921,0.9203,0.9208,0.9217,0.9213,0.9221,0.9221,0.9223,0.9223,0.9223,0.9225,0.9228,0.9228,0.9232,0.9231,0,0,0.9208,0.9204,0.9209,0.921,0.9209,0.9213,0.9213,0.9221,0.9221,0.9223,0.9223,0.9225,0.9228,0.9228,0.9232,0.9232,0,0,0,0.9206,0.9204,0.9207,0.921,0.9212,0.9213,0.9213,0.922,0.9222,0.9223,0.9225,0.9228,0.9228,0.9232,0.9232,0.9227,0,0,0,0.9205,0.9202,0.9207,0.9205,0.9212,0.9216,0.9212,0.9221,0.9222,0.9225,0.9228,0.9228,0.9232,0.9232,0.9227,0.9225,0,0,0,0.9203,0.9202,0.9203,0.9205,0.9209,0.9216,0.9218,0.9221,0.9223,0.9228,0.9228,0.9232,0.9232,0.9227,0.9225,0.9225,0,0,0,0.9199,0.9198,0.9203,0.9203,0.9208,0.9213,0.9218,0.9222,0.9225,0.9228,0.9232,0.9232,0.9227,0.9226,0.9225,0.9224,0.9224,0,0,0.9196,0.9198,0.9198,0.9203,0.9206,0.9212,0.9215,0.9221,0.9224,0.9229,0.9229,0.9227,0.9225,0.9225,0.9222,0.9221,0,0,0,0.9196,0.9196,0.9197,0.9201,0.9206,0.9211,0.9217,0.922,0.9224,0.9226,0.9227,0.9226,0.9227,0.9226,0.9226,0.9226,0.9231,0.9231,0.9231,0.9184,0.919,0.9192,0.9199,0.9202,0.921,0.9213,0.9218,0.9222,0.9222,0.9223,0.922,0.9219,0.9219,0.922,0.9223,0.9223,0.9223,0.9223,0.918,0.9181,0.9188,0.9192,0.9198,0.9202,0.921,0.9213,0.9217,0.9219,0.922,0.9222,0.9218,0.9219,0.9223,0.9223,0.9223,0.9223,0.9223,0.9173,0.9174,0.9178,0.9185,0.9189,0.9197,0.9201,0.9207,0.9212,0.9213,0.9215,0.9215,0.9215,0.9213,0.9213,0.9213,0.9213,0.9213,0.9213,0.9163,0.9168,0.9171,0.9178,0.9182,0.9187,0.9197,0.92,0.9206,0.921,0.921,0.9214,0.9217,0.9218,0.9213,0.9213,0.9213,0.9213,0.9213,0.9156,0.9159,0.9163,0.9167,0.9176,0.9181,0.9189,0.9197,0.9201,0.9203,0.9208,0.9209,0.9211,0.9212,0.9212,0.9207,0.9207,0.9207,0.9207,0.9149,0.9152,0.9158,0.9164,0.917,0.9179,0.9184,0.9192,0.92,0.9203,0.9205,0.9207,0.9207,0.9209,0.9209,0.921,0.9204,0.9204,0.9204,0.9145,0.9148,0.9151,0.916,0.9169,0.9176,0.9182,0.9189,0.9199,0.9204,0.9206,0.9206,0.9208,0.9209,0.9212,0.9213,0.9214,0,0]},{"header":{"parameterUnit":"m.s-1","parameterCategory":1,"la1":30.2992,"la2":30.254,"lo1":-89.0895,"lo2":-89.0443,"dy":0.0025,"dx":0.0025,"nx":19,"ny":19,"refTime":"2026-03-16T21:00:00:Z","depth":0,"parameterNumber":3,"parameterNumberName":"V-component_of_WINDS"},"data":[0,0,0,-7.0199,-7.0205,-7.0464,-7.0465,-7.0802,-7.0805,0,0,0,0,0,0,0,0,0,0,0,-7.0131,-7.0134,-7.0199,-7.0205,-7.0464,-7.0465,-7.0801,-7.0805,0,0,0,0,0,0,0,0,0,0,0,-7.013,-7.0133,-7.0136,-7.0206,-7.0463,-7.0465,-7.08,-7.0602,0,0,0,0,0,0,0,0,0,0,-7.0349,-7.0296,-7.0132,-7.0136,-7.0208,-7.0463,-7.0465,-7.0592,-7.0614,-7.0689,0,-7.0761,0,-7.0789,-7.0828,-7.0829,0,0,0,-7.0198,-7.0277,-7.034,-7.0137,-7.021,-7.0463,-7.0345,-7.0604,-7.0629,-7.0718,-7.0766,-7.0778,-7.0794,-7.083,-7.0832,-7.1294,-7.1296,0,0,-7.0184,-7.0181,-7.0323,-7.0357,-7.0322,-7.0337,-7.0353,-7.0619,-7.0669,-7.0767,-7.0785,-7.08,-7.0833,-7.0835,-7.1292,-7.1294,0,0,0,-7.0148,-7.0171,-7.0227,-7.0343,-7.0389,-7.0345,-7.0363,-7.0658,-7.0676,-7.0789,-7.0804,-7.0835,-7.0839,-7.1289,-7.1293,-7.1414,0,0,0,-7.0139,-7.015,-7.0221,-7.0222,-7.0385,-7.0528,-7.0396,-7.0658,-7.0688,-7.0802,-7.0835,-7.0842,-7.1286,-7.1291,-7.1405,-7.1471,0,0,0,-7.0111,-7.0147,-7.0188,-7.0221,-7.0333,-7.0524,-7.0557,-7.0664,-7.0698,-7.083,-7.0843,-7.1284,-7.129,-7.1397,-7.1458,-7.1591,0,0,0,-7.008,-7.0291,-7.019,-7.0431,-7.0331,-7.0599,-7.0556,-7.0754,-7.0882,-7.0837,-7.1286,-7.1292,-7.1394,-7.145,-7.1583,-7.1703,-7.1753,0,0,-7.0345,-7.0323,-7.0465,-7.0382,-7.0667,-7.0559,-7.0861,-7.0979,-7.0992,-7.1191,-7.1203,-7.1408,-7.1457,-7.159,-7.2038,-7.2078,0,0,0,-7.0548,-7.065,-7.0726,-7.085,-7.0947,-7.1035,-7.1108,-7.1151,-7.1321,-7.1096,-7.1493,-7.1522,-7.16,-7.1657,-7.1691,-7.1757,-7.1319,-7.1318,-7.1318,-7.0919,-7.0927,-7.1161,-7.12,-7.132,-7.1393,-7.1489,-7.1559,-7.153,-7.1624,-7.1683,-7.1954,-7.2022,-7.2047,-7.2116,-7.1748,-7.1748,-7.1749,-7.1749,-7.1307,-7.1452,-7.141,-7.1623,-7.1628,-7.1805,-7.1881,-7.1855,-7.2018,-7.1911,-7.1979,-7.1861,-7.2091,-7.2151,-7.1758,-7.1757,-7.1755,-7.1754,-7.1754,-7.1549,-7.162,-7.1671,-7.1849,-7.1985,-7.2015,-7.2174,-7.2172,-7.2171,-7.224,-7.23,-7.2298,-7.2294,-7.2269,-7.227,-7.2271,-7.2272,-7.2272,-7.2273,-7.1781,-7.1834,-7.1971,-7.2091,-7.2169,-7.2271,-7.2345,-7.242,-7.2503,-7.2489,-7.2489,-7.2449,-7.2113,-7.2028,-7.2288,-7.2285,-7.2283,-7.2282,-7.2281,-7.2169,-7.2081,-7.2292,-7.237,-7.251,-7.2643,-7.2639,-7.2792,-7.2854,-7.2932,-7.2878,-7.263,-7.2606,-7.2579,-7.2509,-7.2877,-7.2877,-7.2877,-7.2877,-7.2373,-7.2362,-7.2576,-7.2701,-7.2823,-7.2841,-7.3073,-7.3132,-7.3177,-7.3215,-7.3161,-7.3067,-7.304,-7.3032,-7.2996,-7.2929,-7.3397,-7.3397,-7.3398,-7.2611,-7.2612,-7.2812,-7.2859,-7.2968,-7.306,-7.3278,-7.3419,-7.3452,-7.3419,-7.3243,-7.3222,-7.307,-7.3021,-7.2983,-7.2926,-7.2804,0,0]}]]